{"data":{"norad_id":63364,"intl_designator":"2025-063B","name":"STARLINK-32543","alt_names":[],"object_type":"PAYLOAD","status":"ACTIVE","operator":null,"country":"US","launch_date":"2025-03-26","launch_site_code":"AFWTR","launch_vehicle":null,"mission":null,"orbit_class":"UNKNOWN","rcs_meters":null,"size_class":null,"mass_kg":null,"dimensions":null,"purposes":["comms"],"wikipedia_slug":null,"has_3d_model":false,"image_url":null,"decayed_at":null,"tle_current":{"epoch":"2026-09-20T21:48:19.148544Z","epoch_age_seconds":123558,"freshness":"FRESH","line1":"1 63364U 25063B   26263.90855496  .00018442  00000+0  55546-3 0  9999","line2":"2 63364  53.1570 219.6536 0001685  94.7343 265.3852 15.34408814 84727","mean_motion":15.34408814,"eccentricity":0.0001685,"inclination_deg":53.157,"raan_deg":219.6536,"arg_perigee_deg":94.7343,"mean_anomaly_deg":265.3852,"bstar":0.00055546,"rev_number":8472,"period_min":93.847218998052,"perigee_km":461.52436610075,"apogee_km":463.82972043333,"semimajor_km":6840.814043267,"source":"CELESTRAK","updated_at":"2026-09-21T09:00:34.971998Z"}}}